COSMOS 1275 DEB

Satellite information

Favourite Embed

Satellite Type and Status

DEBRISIN ORBIT

Key statistics

Satellite COSMOS 1275 DEB at a glance.

Uptime

16263

Days in orbit

Revolutions

≈ 13.9

Per day

Orbit

LEO

Low Earth Orbit

Inclination

83.0

Latest

Satellite identification and parameters

Extended collection of information and parameters for COSMOS 1275 DEB.

Object identification

Identified? True

Debris? True

Object name: COSMOS 1275 DEB

International designator: 1981-053HC

Object number (NORAD): 13808

Object ID (CCSDS): 13808

Country: COMMONWEALTH OF INDEPENDENT STATES (CIS)

Current information (Y/N): Y

RCS size: SMALL

Orbital parameters

Period: 103.347 minutes

Inclination: 83.0314 deg

SMA: 7295.006 km

Apoapsis: 959.878 km

Periapsis: 873.864 km

RAAN: 120.7117 deg

Eccentricy: 0.0058954

Argument of periapsis: 305.2908 deg

Mean anomaly: 208.6941 deg

Mean motion: 13.93363125 rev/day

Mean motion (dot): 0.00002569 rev/day2

B* drag term: 0.0019262 1/REarth

Two-line elements (TLE)

Creation date: Dec. 12, 2025, 7:16 a.m.

Reference frame: TEME

Reference center: EARTH

Epoch: Dec. 11, 2025, 8:38 p.m. UTC

TLE line 0: 0 COSMOS 1275 DEB

TLE line 1: 1 13808U 81053HC 25345.85991110 .00002569 00000-0 19262-2 0 9994

TLE line 2: 2 13808 83.0314 120.7117 0058954 305.2908 208.6941 13.93363125164195

Live tracking on map

Real-time ground track for satellite COSMOS 1275 DEB.

In-orbit conjunctions

A list of the most updated potential collisions computed for object COSMOS 1275 DEB.

Target Orbit TCA Probability of collision Miss distance Type
THORAD AGENA D DEB SSO 2024-11-11 12:52:58 0.0006228862 331.0 (m) DEBRIS
COSMOS 1375 DEB LEO 2024-11-08 16:18:13 0.000493955 280.0 (m) DEBRIS
FENGYUN 1C DEB SSO 2024-09-27 08:09:17 0.0002693676 412.0 (m) DEBRIS

Associated space launch

Navigation satellite providing location information for the Tsiklon-B navigation system

COSMOS 1275 DEB was lifted into orbit during the mission ‘Kosmos-3M | Parus 27’, on board a Kosmos-3M space rocket.

The launch took place on June 4, 1981, 3:41 p.m. from 132/2.

For more information about the launch, click the button.

Launch to space Kosmos-3M | Parus 27
Kosmos-3M | Parus 27

Agency: N/A

Status: Launch Successful

Launch date: June 4, 1981, 3:41 p.m. UTC

Rocket: Kosmos-3M

Launch pad: 132/2

Location: Plesetsk Cosmodrome, Russian Federation

...

Latest news about this satellite

There are no fresh news available about this satellite. Check back as we update our databases every day.


Newsletter sign-up

Weekly statistics, charts and insights to help you stay on top of the space industry.